Location: Mococo
(38.0255°N, 122.1161°W)
Time: 06:19:17
(UTC+00:00)

SL-4 R/B - Pass Details

Date: 13 February 2026
Orbit: 382 x 516 km, 51.6° (Epoch: 5 March)

Event Time Altitude Azimuth Distance (km) Brightness Sun altitude
Exits shadow 13:17:02 23° 359° (N) 1,022 3.3 -21.0°
Maximum altitude 13:18:08 27° 30° (NNE) 918 3.4 -20.7°
Drops below altitude 10° 13:21:23 10° 90° (E) 1,651 5.7 -20.1°
Sets 13:23:49 0° 103° (ESE) 2,554 6.9 -19.6°
